Вернуться в каталог

STARLINK-36610

АктивенСвязьVLEO
NORAD 67637·PAYLOAD·🇺🇸 United States

Запущен Jan 30, 2026 с Cape Canaveral Space Force Station

Loading…

Ближайшие Пролёты (ближайшие 24 часа)

TLE

СвежийSource: CelesTrak SupGP

Эпоха: Sep 14, 2026, 21:06 UTC

1 67637C 26020W   26257.87965278 -.00030357  00000+0 -10994-2 0  2574
2 67637  43.0004 151.2615 0001392 267.2847 270.1557 15.27596690    12

Отслеживайте STARLINK-36610 в реальном времени с AllMySat

Download on the App Store